STARLINK-32579, 61922

Orbit data source: Space-Track

STARLINK-32579, 61922 is a payload satellite owned by SpaceX/Seattle (US) in LEO that was launched on Mon, 11 Nov 2024 UTC via an FALCON 9 launch vehicle from the Air Force Eastern Test Range (AFETR). Payload-class satellites include a variety of spacecraft equipped with specific instruments for various scientific and technological missions. These include communications satellites like Starlink; space stations such as the ISS; scientific satellites like the Hubble; Earth observation satellites from companies like Planet Labs, Umbra, and HawkEye 360; GPS; miniature CubeSats for education and research; and military/defense satellites.

Loading next visibility...
Identifier
61922, 2024-207L
Orbit
LEO
Country
Flag of USUS
Related business
Manufacturer
SpaceX/Seattle
Mission
Operational Commercial Communications
Bus & Motor
STARLINK V2M, Unknown motor
Mass
730 kg wet, ~700 kg dry
Launch date (UTC)
2024-11-11 (2 years ago)
Launch vehicle
FALCON 9
Launch site
Air Force Eastern Test Range (AFETR)
Object type
Payload
Rocket body
Debris
Shape & HBR
Box + 2 Pan, 17.7 m
Radar Cross Section
33.884 m², Large (>1 m²)

Expand to show TLE details & history
Last TLE update: 3 days ago

TLE from 3 days ago
0 STARLINK-32579
1 61922U 24207L   26171.04616243  .00026701  00000-0  97511-3 0  9990
2 61922  43.0014  67.3655 0001890 277.3176  82.7461 15.27619778 90333
Epoch: 2026-06-20T01:06Z
TLE epoch observation values (Epoch: 2026-06-20T01:06:28.433Z)
Latitude
-0.00003°
Longitude
142.48059°
Altitude
482.542 km
Speed
7.626 km/s
True Right ascension
04h 29m 27s
True Declination
0° 00' 00"
Sunlit
Object was in daylight at epoch
Visualization orbit readout
Latitude
Unknown
Longitude
Unknown
Altitude
Unknown
Speed
Unknown
Apparent Right ascension
Unknown
Apparent Declination
Unknown
Sunlit
N/A
Visualization observer readout
Local Sidereal Time
02:14:50
Azimuth
Unknown
Elevation
Unknown
Doppler factor
Unknown
Orbital elements
Apogee altitude
486.172 km
Perigee altitude
483.578 km
Semi-major axis
6,863.012 km
Eccentricity
0.00019
Inclination
43.0014°
RAAN
67.3655°
Arg. of periapsis
277.3176°
True anomaly
82.76759°
Mean anomaly
82.7461°
Eccentric anomaly
82.75684°
Mean motion
3.81743 °/min
Orbital period
94.3 mins
BSTAR
0.00097511
Loading maneuver chart data...
Computing Atmospheric mass density...
Loading historical data...
Loading historical data...
Loading historical data...
Loading historical data...
Loading historical data...
Loading historical data...
Loading historical data...

Documentation

Showing up to 5 results
|